EA2DUR Weather Reports


time (UTC)temp
C
wind
direction
speed
KPH
gust
KPH
rain 1hr
cm
rain 24hr
cm
rain mn
cm
humidity
%
barometer
mb
20260510213014 9 35 8.0 12.9 0.00 0.00 0.00 85 944.1
20260510211512 10 301 1.6 4.8 0.00 0.00 0.00 83 944.0
20260510210011 10 183 1.6 4.8 0.00 0.00 0.00 83 943.9
20260510204506 10 74 3.2 8.0 0.00 0.00 0.00 81 943.8
20260510203004 11 59 3.2 6.4 0.00 0.00 0.00 79 943.3
20260510201503 11 213 0.0 6.4 0.00 0.00 0.00 77 943.1
20260510200012 12 300 1.6 6.4 0.00 0.00 0.00 72 942.8
20260510194502 12 285 3.2 8.0 0.00 0.00 0.00 67 942.7
20260510193007 13 299 1.6 6.4 0.00 0.00 0.00 64 942.6
20260510191502 13 265 3.2 6.4 0.00 0.00 0.00 61 942.5
20260510190004 14 291 1.6 9.7 0.00 0.00 0.00 61 942.4
20260510184559 14 301 4.8 12.9 0.00 0.00 0.00 61 942.1
20260510183103 14 314 6.4 11.3 0.00 0.00 0.00 60 941.9
20260510181559 15 313 9.7 22.5 0.00 0.00 0.00 60 941.9
20260510180059 15 328 16.1 30.6 0.00 0.00 0.00 60 941.7
20260510174600 16 263 22.5 38.6 0.00 0.00 0.00 57 941.2
20260510173106 16 271 22.5 32.2 0.00 0.00 0.00 57 941.2
20260510171559 16 256 11.3 16.1 0.00 0.00 0.00 63 941.0
20260510170107 16 220 8.0 14.5 0.00 0.00 0.00 64 941.1
20260510164556 16 188 6.4 16.1 0.00 0.00 0.00 64 941.0
20260510163058 16 215 9.7 27.4 0.00 0.00 0.00 62 941.0
20260510161555 16 205 4.8 22.5 0.00 0.00 0.00 64 941.0
20260510160055 16 227 12.9 27.4 0.00 0.00 0.00 63 941.0
20260510154554 16 205 9.7 24.1 0.00 0.00 0.00 64 941.1
20260510153052 16 161 9.7 22.5 0.00 0.00 0.00 65 941.2
20260510151552 15 200 8.0 25.7 0.00 0.00 0.00 68 941.5
20260510150053 15 168 6.4 19.3 0.00 0.00 0.00 70 941.6
20260510144552 14 229 9.7 20.9 0.00 0.00 0.00 74 942.0
20260510143050 13 244 6.4 24.1 0.00 0.00 0.00 77 941.6
20260510141559 13 205 8.0 20.9 0.00 0.00 0.00 78 942.1
20260510140053 13 244 8.0 12.9 0.00 0.00 0.00 79 942.8
20260510134555 13 320 3.2 8.0 0.00 0.00 0.00 83 942.6
20260510133102 12 269 8.0 19.3 0.00 0.00 0.00 85 942.7
20260510131600 12 283 20.9 29.0 0.00 0.00 0.00 87 943.0
20260510130047 11 267 19.3 40.2 0.00 0.00 0.00 87 943.1
20260510124546 12 254 27.4 51.5 0.00 0.00 0.00 77 942.9
20260510123056 17 184 6.4 17.7 0.00 0.00 0.00 56 941.3
20260510121542 17 230 6.4 11.3 0.00 0.00 0.00 55 941.2
20260510120042 17 237 4.8 16.1 0.00 0.00 0.00 53 941.5
20260510114540 17 241 4.8 17.7 0.00 0.00 0.00 53 941.7
20260510113043 17 196 11.3 19.3 0.00 0.00 0.00 50 941.8
20260510111539 17 242 6.4 19.3 0.00 0.00 0.00 53 941.9
20260510110039 17 188 4.8 22.5 0.00 0.00 0.00 55 942.3
20260510104531 16 134 6.4 17.7 0.00 0.00 0.00 59 942.5
20260510103028 16 202 8.0 24.1 0.00 0.00 0.00 61 942.6
20260510101522 15 211 6.4 20.9 0.00 0.00 0.00 64 942.9
20260510100021 15 254 6.4 16.1 0.00 0.00 0.00 64 943.1
20260510094518 15 232 3.2 22.5 0.00 0.00 0.00 65 943.0
20260510093016 15 228 8.0 27.4 0.00 0.00 0.00 66 943.0
20260510091514 15 206 11.3 30.6 0.00 0.00 0.00 66 943.1
20260510090011 15 222 16.1 29.0 0.00 0.00 0.00 68 943.2
20260510084507 14 221 8.0 25.7 0.00 0.00 0.00 70 943.2
20260510083003 14 239 12.9 22.5 0.00 0.00 0.00 69 943.3
20260510081602 13 182 12.9 24.1 0.00 0.00 0.00 69 943.3
20260510080055 13 157 12.9 25.7 0.00 0.00 0.00 71 943.3
20260510074552 13 229 14.5 32.2 0.00 0.00 0.00 71 943.3
20260510073105 13 215 16.1 27.4 0.00 0.00 0.00 72 943.2
20260510071556 12 143 16.1 35.4 0.00 0.00 0.00 74 942.9
20260510070044 12 234 11.3 29.0 0.00 0.00 0.00 76 942.6
20260510064548 12 175 16.1 24.1 0.00 0.00 0.00 77 942.5
20260510063039 11 229 12.9 22.5 0.00 0.00 0.00 79 942.3
20260510061530 11 195 12.9 25.7 0.00 0.00 0.00 79 942.1
20260510060026 11 217 11.3 27.4 0.00 0.00 0.00 80 942.1
20260510054524 11 162 6.4 20.9 0.00 0.00 0.00 82 942.2
20260510053020 11 227 8.0 19.3 0.00 0.00 0.00 82 942.1
20260510051517 11 190 8.0 19.3 0.00 0.00 0.00 83 941.8
20260510050014 11 190 4.8 17.7 0.00 0.00 0.00 82 941.7
20260510044515 11 135 6.4 16.1 0.00 0.00 0.00 82 941.7
20260510043012 11 170 6.4 19.3 0.00 0.00 0.00 83 941.7
20260510041511 11 192 8.0 14.5 0.00 0.00 0.00 85 941.7
20260510040012 11 173 4.8 11.3 0.00 0.00 0.00 85 941.7
20260510034507 11 171 3.2 14.5 0.00 0.00 0.00 84 941.9
20260510033005 11 146 4.8 9.7 0.00 0.00 0.00 83 941.8
20260510031506 12 178 6.4 12.9 0.00 0.00 0.00 83 941.9
20260510030005 12 171 8.0 19.3 0.00 0.00 0.00 83 941.6
20260510024600 12 184 6.4 17.7 0.00 0.00 0.00 84 941.6
20260510023059 12 155 8.0 20.9 0.00 0.00 0.00 87 941.6
20260510021601 12 216 8.0 19.3 0.00 0.00 0.00 88 941.5
20260510020056 12 151 8.0 12.9 0.00 0.00 0.00 88 941.5
20260510014606 12 211 3.2 9.7 0.00 0.00 0.00 88 941.5
20260510013052 12 181 4.8 11.3 0.00 0.00 0.00 87 941.2
20260510011549 12 237 8.0 12.9 0.00 0.00 0.00 87 941.7
20260510010048 13 173 6.4 19.3 0.00 0.00 0.00 87 941.8
20260510004547 13 170 8.0 24.1 0.00 0.00 0.00 85 941.9
20260510003048 13 128 4.8 14.5 0.00 0.00 0.00 85 941.8
20260510001549 13 177 4.8 12.9 0.00 0.00 0.00 85 942.0
20260510000042 13 160 9.7 20.9 0.00 0.00 0.00 86 942.2
20260509234541 13 197 9.7 16.1 0.00 0.00 0.00 87 942.2
20260509233039 13 284 3.2 11.3 0.00 0.00 0.00 87 942.0
20260509231538 13 186 6.4 14.5 0.00 0.00 0.00 87 941.7
20260509230036 13 197 4.8 16.1 0.00 0.00 0.00 86 941.9
20260509224545 13 128 4.8 17.7 0.00 0.00 0.00 86 942.1
20260509223036 13 155 4.8 9.7 0.00 0.00 0.00 85 942.2
20260509221535 13 172 4.8 14.5 0.00 0.00 0.00 84 942.3
20260509220029 13 158 12.9 25.7 0.00 0.00 0.00 83 942.2
20260509214529 13 165 8.0 16.1 0.00 0.00 0.00 82 941.9